SAS51R EDDH-EKCH

Flight info

Callsign SAS51R
Flight time 0h 31m
Altitude 23000
Route LUGEG3G LUGEG P605 GESKA/N0398F220 Z711 MONAK
Aircraft A319/M-SDE3FGHIRWY/LB1

Departure

Time 2026-04-23 13:16
Airport Hamburg Helmut Schmidt Airport (EDDH)

Arrival

Time 2026-04-23 13:48
Airport Copenhagen Kastrup Airport (EKCH)
Time Latitude Longitude Altitude Speed Heading
2026-04-23 12:52 53.63198 10.00392 46 ft 0 kts 84°
2026-04-23 13:08 53.63197 10.00379 46 ft 4 kts 90°
2026-04-23 13:08 53.63204 10.00337 43 ft 4 kts 109°
2026-04-23 13:09 53.63208 10.00294 46 ft 4 kts 101°
2026-04-23 13:09 53.63218 10.00256 44 ft 4 kts 143°
2026-04-23 13:09 53.63233 10.00244 46 ft 1 kts 175°
2026-04-23 13:09 53.63236 10.00244 46 ft 0 kts 175°
2026-04-23 13:12 53.63225 10.00245 41 ft 6 kts 176°
2026-04-23 13:12 53.63154 10.00254 42 ft 14 kts 176°
2026-04-23 13:12 53.63044 10.00235 44 ft 18 kts 213°
2026-04-23 13:12 53.62928 10.00111 46 ft 18 kts 212°
2026-04-23 13:13 53.62860 10.00011 46 ft 13 kts 243°
2026-04-23 13:13 53.62844 9.99955 45 ft 0 kts 242°
2026-04-23 13:13 53.62834 9.99925 47 ft 8 kts 242°
2026-04-23 13:14 53.62816 9.99794 47 ft 13 kts 304°
2026-04-23 13:14 53.62832 9.99775 47 ft 0 kts 333°
2026-04-23 13:16 53.62853 9.99757 45 ft 23 kts 333°
2026-04-23 13:16 53.63290 9.99380 47 ft 114 kts 333°
2026-04-23 13:16 53.64200 9.98607 299 ft 158 kts 330°
2026-04-23 13:16 53.65183 9.97780 1269 ft 157 kts 330°
2026-04-23 13:17 53.66184 9.96919 1999 ft 168 kts 331°
2026-04-23 13:17 53.67294 9.95956 2395 ft 190 kts 332°
2026-04-23 13:17 53.68511 9.94960 3097 ft 198 kts 341°
2026-04-23 13:17 53.69883 9.94657 4012 ft 203 kts 359°
2026-04-23 13:18 53.71303 9.94671 4954 ft 205 kts 359°
2026-04-23 13:18 53.72254 9.94736 5543 ft 209 kts
2026-04-23 13:18 53.73639 9.95735 6177 ft 234 kts 36°
2026-04-23 13:18 53.75033 9.98871 7013 ft 264 kts 53°
2026-04-23 13:19 53.76005 10.01491 7884 ft 270 kts 54°
2026-04-23 13:19 53.77007 10.04219 8843 ft 274 kts 54°
2026-04-23 13:19 53.77688 10.06077 9472 ft 277 kts 54°
2026-04-23 13:19 53.78717 10.08879 10360 ft 282 kts 53°
2026-04-23 13:20 53.79789 10.11778 10825 ft 303 kts 53°
2026-04-23 13:20 53.80951 10.14899 11200 ft 322 kts 54°
2026-04-23 13:20 53.82160 10.18161 11883 ft 330 kts 54°
2026-04-23 13:20 53.83368 10.21433 12643 ft 335 kts 54°
2026-04-23 13:21 53.84612 10.24808 13400 ft 339 kts 54°
2026-04-23 13:21 53.85873 10.28219 14158 ft 344 kts 54°
2026-04-23 13:21 53.87151 10.31680 14814 ft 348 kts 55°
2026-04-23 13:21 53.88439 10.35178 15494 ft 351 kts 55°
2026-04-23 13:22 53.89740 10.38715 16184 ft 355 kts 55°
2026-04-23 13:22 53.91096 10.42220 16871 ft 356 kts 49°
2026-04-23 13:22 53.92790 10.45307 17550 ft 358 kts 44°
2026-04-23 13:22 53.94521 10.48359 18272 ft 360 kts 45°
2026-04-23 13:23 53.96272 10.51447 18888 ft 364 kts 45°
2026-04-23 13:23 53.98037 10.54560 19486 ft 367 kts 44°
2026-04-23 13:23 53.99812 10.57697 20106 ft 370 kts 45°
2026-04-23 13:23 54.01602 10.60869 20727 ft 373 kts 45°
2026-04-23 13:24 54.03378 10.64020 21321 ft 375 kts 45°
2026-04-23 13:24 54.05195 10.67244 21875 ft 379 kts 45°
2026-04-23 13:24 54.07028 10.70502 22456 ft 382 kts 45°
2026-04-23 13:24 54.08874 10.73788 23018 ft 386 kts 45°
2026-04-23 13:25 54.10732 10.77099 23233 ft 387 kts 45°
2026-04-23 13:25 54.12562 10.80364 23272 ft 375 kts 45°
2026-04-23 13:25 54.14354 10.83567 23277 ft 372 kts 45°
2026-04-23 13:25 54.16139 10.86757 23263 ft 371 kts 45°
2026-04-23 13:26 54.17918 10.89939 23262 ft 370 kts 45°
2026-04-23 13:26 54.19698 10.93129 23261 ft 370 kts 45°
2026-04-23 13:26 54.21472 10.96317 23261 ft 370 kts 45°
2026-04-23 13:26 54.23249 10.99512 23261 ft 370 kts 45°
2026-04-23 13:27 54.25022 11.02702 23267 ft 370 kts 45°
2026-04-23 13:27 54.26797 11.05899 23259 ft 371 kts 45°
2026-04-23 13:27 54.28574 11.09104 23257 ft 371 kts 45°
2026-04-23 13:27 54.30351 11.12320 23258 ft 371 kts 45°
2026-04-23 13:28 54.32124 11.15532 23250 ft 371 kts 45°
2026-04-23 13:28 54.33899 11.18746 23250 ft 371 kts 45°
2026-04-23 13:28 54.35675 11.21968 23248 ft 371 kts 45°
2026-04-23 13:28 54.37448 11.25188 23248 ft 371 kts 45°
2026-04-23 13:29 54.39197 11.28369 23264 ft 371 kts 45°
2026-04-23 13:29 54.40966 11.31592 23270 ft 371 kts 44°
2026-04-23 13:29 54.42928 11.34407 23269 ft 367 kts 30°
2026-04-23 13:29 54.45154 11.36658 23271 ft 366 kts 29°
2026-04-23 13:30 54.47326 11.38837 23271 ft 366 kts 28°
2026-04-23 13:30 54.49530 11.41046 23265 ft 366 kts 28°
2026-04-23 13:30 54.51727 11.43247 23088 ft 364 kts 28°
2026-04-23 13:30 54.53910 11.45430 22814 ft 361 kts 28°
2026-04-23 13:31 54.56076 11.47595 22548 ft 359 kts 28°
2026-04-23 13:31 54.58235 11.49760 22288 ft 358 kts 28°
2026-04-23 13:31 54.60379 11.51918 22028 ft 356 kts 28°
2026-04-23 13:31 54.62516 11.54073 21772 ft 352 kts 28°
2026-04-23 13:32 54.64613 11.56190 21400 ft 347 kts 28°
2026-04-23 13:32 54.66686 11.58284 20966 ft 344 kts 28°
2026-04-23 13:32 54.68739 11.60363 20535 ft 340 kts 28°
2026-04-23 13:32 54.70773 11.62422 20101 ft 337 kts 28°
2026-04-23 13:33 54.72795 11.64469 19668 ft 335 kts 28°
2026-04-23 13:33 54.74765 11.66467 19253 ft 332 kts 28°
2026-04-23 13:33 54.76754 11.68487 18823 ft 330 kts 28°
2026-04-23 13:33 54.78723 11.70493 18379 ft 328 kts 28°
2026-04-23 13:34 54.80680 11.72485 17925 ft 325 kts 28°
2026-04-23 13:34 54.82619 11.74460 17504 ft 321 kts 28°
2026-04-23 13:34 54.84533 11.76411 17088 ft 317 kts 28°
2026-04-23 13:34 54.86427 11.78343 16676 ft 314 kts 28°
2026-04-23 13:35 54.88305 11.80267 16265 ft 312 kts 28°
2026-04-23 13:35 54.90161 11.82169 15854 ft 309 kts 28°
2026-04-23 13:35 54.92004 11.84063 15440 ft 307 kts 28°
2026-04-23 13:35 54.93837 11.85951 15043 ft 305 kts 28°
2026-04-23 13:36 54.95654 11.87824 14648 ft 303 kts 28°
2026-04-23 13:36 54.97461 11.89684 14240 ft 301 kts 28°
2026-04-23 13:36 54.99256 11.91536 13824 ft 299 kts 27°
2026-04-23 13:36 55.01042 11.93379 13409 ft 297 kts 27°
2026-04-23 13:37 55.02811 11.95205 13016 ft 294 kts 27°
2026-04-23 13:37 55.04559 11.97005 12640 ft 291 kts 27°
2026-04-23 13:37 55.06297 11.98797 12255 ft 288 kts 27°
2026-04-23 13:37 55.08017 12.00572 11877 ft 286 kts 27°
2026-04-23 13:38 55.09729 12.02343 11502 ft 285 kts 27°
2026-04-23 13:38 55.11426 12.04101 11126 ft 283 kts 26°
2026-04-23 13:38 55.13115 12.05854 10754 ft 282 kts 26°
2026-04-23 13:38 55.14793 12.07595 10413 ft 279 kts 26°
2026-04-23 13:39 55.16443 12.09312 10181 ft 274 kts 26°
2026-04-23 13:39 55.18071 12.11008 10036 ft 272 kts 26°
2026-04-23 13:39 55.19682 12.12683 9809 ft 274 kts 26°
2026-04-23 13:39 55.21334 12.14399 9349 ft 275 kts 26°
2026-04-23 13:40 55.22946 12.16083 9015 ft 272 kts 26°
2026-04-23 13:40 55.24568 12.17781 8614 ft 271 kts 26°
2026-04-23 13:40 55.26190 12.19485 8225 ft 271 kts 27°
2026-04-23 13:40 55.27803 12.21179 7863 ft 270 kts 27°
2026-04-23 13:41 55.29407 12.22861 7574 ft 266 kts 27°
2026-04-23 13:41 55.30987 12.24525 7273 ft 263 kts 27°
2026-04-23 13:41 55.32546 12.26167 6985 ft 260 kts 27°
2026-04-23 13:41 55.34093 12.27792 6694 ft 257 kts 27°
2026-04-23 13:42 55.35619 12.29393 6386 ft 252 kts 27°
2026-04-23 13:42 55.37094 12.30948 6071 ft 242 kts 27°
2026-04-23 13:42 55.38512 12.32446 5764 ft 232 kts 27°
2026-04-23 13:42 55.39873 12.33883 5470 ft 225 kts 26°
2026-04-23 13:43 55.41197 12.35280 5144 ft 223 kts 26°
2026-04-23 13:43 55.42513 12.36671 4744 ft 218 kts 26°
2026-04-23 13:43 55.43802 12.38032 4359 ft 214 kts 26°
2026-04-23 13:43 55.45067 12.39371 3953 ft 211 kts 26°
2026-04-23 13:44 55.46335 12.40710 3417 ft 214 kts 26°
2026-04-23 13:44 55.47525 12.42317 3018 ft 213 kts 36°
2026-04-23 13:44 55.48599 12.44005 2810 ft 201 kts 35°
2026-04-23 13:44 55.49623 12.45591 2557 ft 191 kts 35°
2026-04-23 13:45 55.50602 12.47096 2359 ft 182 kts 35°
2026-04-23 13:45 55.51536 12.48530 2064 ft 173 kts 35°
2026-04-23 13:45 55.52415 12.49882 1837 ft 162 kts 34°
2026-04-23 13:45 55.53251 12.51165 1619 ft 158 kts 35°
2026-04-23 13:46 55.54076 12.52432 1405 ft 155 kts 36°
2026-04-23 13:46 55.54880 12.53667 1178 ft 152 kts 33°
2026-04-23 13:46 55.55675 12.54889 968 ft 152 kts 35°
2026-04-23 13:46 55.56468 12.56113 772 ft 147 kts 33°
2026-04-23 13:47 55.57195 12.57237 580 ft 135 kts 34°
2026-04-23 13:47 55.57893 12.58317 402 ft 133 kts 35°
2026-04-23 13:47 55.58602 12.59402 230 ft 137 kts 33°
2026-04-23 13:47 55.59306 12.60501 49 ft 132 kts 33°
2026-04-23 13:48 55.59902 12.61400 19 ft 91 kts 41°
2026-04-23 13:48 55.60275 12.61984 19 ft 67 kts 41°
2026-04-23 13:48 55.60525 12.62293 21 ft 36 kts 18°
2026-04-23 13:48 55.60783 12.62405 22 ft 36 kts 26°
2026-04-23 13:49 55.61006 12.62732 21 ft 44 kts 41°
2026-04-23 13:49 55.61209 12.63044 21 ft 32 kts 41°
2026-04-23 13:49 55.61351 12.63268 21 ft 29 kts 42°
2026-04-23 13:49 55.61525 12.63536 19 ft 38 kts 40°
2026-04-23 13:50 55.61741 12.63868 23 ft 40 kts 42°
2026-04-23 13:50 55.61905 12.64103 22 ft 20 kts 30°
2026-04-23 13:50 55.61949 12.64367 21 ft 26 kts 80°
2026-04-23 13:50 55.62074 12.64615 20 ft 31 kts 32°
2026-04-23 13:51 55.62245 12.64821 24 ft 18 kts 49°
2026-04-23 13:51 55.62199 12.65041 24 ft 23 kts 125°
2026-04-23 13:51 55.62260 12.65199 22 ft 23 kts
2026-04-23 13:51 55.62450 12.65186 20 ft 32 kts 358°
2026-04-23 13:52 55.62601 12.65172 19 ft 10 kts 356°
2026-04-23 13:52 55.62673 12.65185 19 ft 14 kts
2026-04-23 13:52 55.62738 12.65180 20 ft 6 kts 358°
2026-04-23 13:52 55.62747 12.65179 20 ft 0 kts 358°